Regional Weather Roundup
Issued by NWS

Home | Current Version | Previous Version | Text Only | Print | Product List | Glossary On
Versions: 1 2 3 4 5 6 7 8 9 10 11 12 13 14 15 16 17 18 19 20 21 22 23 24 25 26 27 28 29 30 31 32 33 34 35 36 37 38 39 40 41 42 43 44 45 46 47 48 49 50
660
ASUS45 KREV 031510
RWRNV
NEVADA REGIONAL WEATHER ROUNDUP
NATIONAL WEATHER SERVICE RENO NV
700 AM PST SAT DEC 03 2016

NOTE: "FAIR" INDICATES FEW OR NO CLOUDS BELOW 12,000 FEET WITH NO
SIGNIFICANT WEATHER AND/OR OBSTRUCTIONS TO VISIBILITY.

NVZ001-003-004-031600-
WESTERN NEVADA

CITY           SKY/WX    TMP DP  RH WIND       PRES   REMARKS
RENO           PTCLDY    22  14  71 N5        30.35R
CARSON CITY    FAIR      19  14  79 CALM      30.35R
MINDEN         FAIR      14   9  79 CALM      30.35R
PYRAMID LAKE     N/A     32 N/A N/A W6          N/A
FALLON         PTCLDY    21  13  71 CALM      30.35R
LOVELOCK       CLEAR     17  12  80 CALM      30.36R
HAWTHORNE        N/A     19  10  68 CALM      30.37R
$$

NVZ002-CAZ072-073-031600-
NORTHERN AND CENTRAL SIERRA

CITY           SKY/WX    TMP DP  RH WIND       PRES   REMARKS
S. LAKE TAHOE  CLEAR     13   7  77 S3        30.32R
TRUCKEE        CLEAR     10   9  92 CALM      30.35R
SQUAW VLY 8000   N/A     32  23  69 NE5         N/A
SUSANVILLE     CLEAR    N/A N/A N/A CALM      30.36R
MAMMOTH LAKES  FAIR      26  19  74 CALM      30.31R
BRIDGEPORT       N/A     12   6  77 CALM      30.32R
$$

NVZ030-031-036-031600-
NORTHERN NEVADA

CITY           SKY/WX    TMP DP  RH WIND       PRES   REMARKS
ELKO           CLOUDY    25  15  66 SW8       30.31R
WINNEMUCCA     CLEAR     27  18  69 CALM      30.33R
WENDOVER       CLOUDY    27  16  63 E6        30.29R
$$

NVZ035-037-031600-
CENTRAL NEVADA

CITY           SKY/WX    TMP DP  RH WIND       PRES   REMARKS
ELY            PTCLDY     4  -1  80 S13       30.26R WCI -13
EUREKA           N/A     14   8  77 S5        30.30S
$$

NVZ013-014-031600-
SOUTH CENTRAL NEVADA

CITY           SKY/WX    TMP DP  RH WIND       PRES   REMARKS
TONOPAH        PTCLDY    19   6  57 N15       30.29R
$$

NVZ017-020-022-031600-
SOUTHERN NEVADA

CITY           SKY/WX    TMP DP  RH WIND       PRES   REMARKS
LAS VEGAS      PTCLDY    43   9  24 NE13      30.23R
N. LAS VEGAS   CLEAR     42   9  25 N12       30.23R
NELLIS AFB     CLEAR     41  11  29 N7        30.25R
HENDERSON      PTCLDY    40  10  29 NE12      30.24R
MERCURY        CLEAR     34  10  37 NE17      30.23R
$$




USA.gov is the U.S. government's official web portal to all federal, state and local government web resources and services.